Terug naar catalogus

STARLINK-34551

ActiefCommunicatieVLEO
NORAD 64682·PAYLOAD·🇺🇸 United States

Gelanceerd Jun 28, 2025 vanaf Cape Canaveral Space Force Station

Loading…

Volgende Passages (komende 24 uur)

TLE

VersSource: CelesTrak SupGP

Epoch: Sep 15, 2026, 03:33 UTC

1 64682C 25139U   26258.14840278  .00038374  00000+0  11334-2 0  2589
2 64682  53.1588 314.7738 0001250  82.8225 278.4647 15.34382777    12

Volg STARLINK-34551 in realtime met AllMySat

Download on the App Store